QPF
0.02 0.02 0.01 0.01 0.01 0.01 0.01 0.02 0.04 0.03 0.02 0.02 0.02 0.02 0.02 0.04 0.07 0.06 0.07 0.07 0.04 0.02 0.02 0.02 0.02 0.02 0.03 0.03 0.03 0.04 0.07 0.07 0.05 0.04 0.04 0.04 0.04 0.06
0.03 0.02 0.02 0.01 0.01 0.01 0.01 0.02 0.04 0.04 0.02 0.02 0.01 0.01 0.02 0.04 0.07 0.07 0.07 0.08 0.07 0.05 0.03 0.02 0.01 0.02 0.02 0.02 0.02 0.02 0.04 0.07 0.06 0.05 0.04 0.03 0.03 0.04
0.03 0.03 0.02 0.02 0.02 0.01 0.01 0.02 0.04 0.04 0.03 0.02 0.02 0.02 0.03 0.04 0.05 0.07 0.06 0.04 0.04 0.05 0.04 0.02 0.01 0.01 0.01 0.01 0.01 0.02 0.02 0.03 0.04 0.05 0.05 0.04 0.03 0.03
0.03 0.03 0.02 0.02 0.02 0.02 0.02 0.02 0.03 0.04 0.04 0.04 0.03 0.03 0.03 0.04 0.05 0.06 0.05 0.04 0.03 0.03 0.02 0.02 0.01 0.01 0.01 0.01 0.02 0.02 0.04 0.03 0.02 0.03 0.04 0.05 0.04 0.04
0.03 0.02 0.02 0.02 0.02 0.02 0.02 0.02 0.03 0.03 0.04 0.04 0.04 0.04 0.03 0.03 0.04 0.05 0.04 0.04 0.03 0.03 0.02 0.02 0.01 0.01 0.02 0.02 0.02 0.02 0.04 0.04 0.03 0.03 0.04 0.04 0.04 0.04
0.03 0.03 0.03 0.03 0.03 0.03 0.03 0.03 0.03 0.03 0.03 0.04 0.04 0.04 0.04 0.03 0.04 0.06 0.07 0.06 0.04 0.04 0.03 0.03 0.03 0.02 0.02 0.02 0.03 0.03 0.03 0.04 0.04 0.03 0.03 0.03 0.03 0.03
0.03 0.03 0.01 0.01 0.02 0.02 0.02 0.02 0.03 0.04 0.04 0.04 0.04 0.05 0.05 0.06 0.04 0.06 0.11 0.09 0.06 0.05 0.04 0.04 0.03 0.02 0.02 0.02 0.02 0.02 0.03 0.04 0.04 0.04 0.03 0.03 0.02 0.02
0.02 0.02 0.02 0.02 0.02 0.02 0.01 0.02 0.03 0.03 0.03 0.04 0.04 0.05 0.06 0.06 0.06 0.07 0.10 0.11 0.10 0.08 0.06 0.04 0.03 0.03 0.03 0.02 0.02 0.02 0.02 0.02 0.04 0.04 0.03 0.03 0.02 0.02
0.01 0.02 0.02 0.02 0.03 0.02 0.01 0.01 0.02 0.02 0.02 0.02 0.03 0.03 0.03 0.04 0.05 0.06 0.08 0.09 0.09 0.08 0.05 0.03 0.02 0.02 0.01 0.01 0.02 0.02 0.02 0.01 0.02 0.03 0.03 0.02 0.02 0.02
0.01 0.02 0.03 0.03 0.03 0.03 0.02 0.01 0.01 0.02 0.03 0.03 0.03 0.03 0.04 0.04 0.06 0.07 0.08 0.07 0.06 0.05 0.03 0.02 0.01 0.02 0.01 0.01 0.01 0.01 0.01 0.01 0.01 0.02 0.02 0.01 0.01 0.01
0.01 0.01 0.01 0.02 0.02 0.02 0.02 0.02 0.02 0.03 0.04 0.05 0.05 0.05 0.05 0.06 0.07 0.07 0.07 0.05 0.04 0.03 0.03 0.03 0.02 0.02 0.02 0.02 0.02 0.02 0.01 0.01 0.00 0.01 0.01 0.01 0.01 0.01
0.01 0.01 0.01 0.01 0.02 0.03 0.03 0.03 0.04 0.04 0.04 0.04 0.04 0.04 0.04 0.04 0.06 0.06 0.05 0.04 0.03 0.03 0.03 0.03 0.03 0.03 0.03 0.03 0.03 0.02 0.01 0.01 0.01 0.01 0.01 0.01 0.01 0.01
0.01 0.01 0.02 0.02 0.02 0.02 0.03 0.03 0.04 0.03 0.03 0.02 0.02 0.02 0.02 0.02 0.04 0.04 0.04 0.04 0.03 0.03 0.03 0.03 0.03 0.03 0.03 0.03 0.03 0.03 0.02 0.01 0.01 0.01 0.01 0.01 0.01 0.02
0.01 0.01 0.02 0.03 0.03 0.04 0.04 0.04 0.03 0.02 0.01 0.02 0.02 0.02 0.01 0.01 0.02 0.03 0.03 0.04 0.03 0.03 0.03 0.04 0.05 0.05 0.04 0.04 0.04 0.03 0.02 0.02 0.01 0.01 0.01 0.02 0.02 0.02
0.01 0.01 0.02 0.02 0.02 0.02 0.02 0.02 0.02 0.02 0.02 0.02 0.02 0.02 0.02 0.02 0.02 0.03 0.03 0.04 0.04 0.04 0.05 0.06 0.06 0.06 0.05 0.04 0.03 0.03 0.03 0.02 0.01 0.02 0.02 0.02 0.02 0.02
0.01 0.02 0.02 0.02 0.01 0.01 0.01 0.01 0.01 0.01 0.02 0.02 0.02 0.01 0.01 0.02 0.03 0.04 0.04 0.04 0.04 0.03 0.03 0.04 0.05 0.05 0.04 0.04 0.03 0.03 0.03 0.02 0.02 0.02 0.02 0.02 0.02 0.02
0.01 0.01 0.01 0.01 0.01 0.01 0.01 0.01 0.01 0.01 0.01 0.01 0.01 0.01 0.01 0.02 0.03 0.04 0.04 0.03 0.04 0.03 0.03 0.02 0.03 0.03 0.03 0.03 0.02 0.01 0.02 0.02 0.02 0.03 0.04 0.04 0.03 0.03
0.02 0.02 0.02 0.01 0.02 0.02 0.02 0.02 0.03 0.02 0.02 0.01 0.01 0.01 0.01 0.02 0.03 0.04 0.04 0.03 0.03 0.03 0.02 0.02 0.02 0.02 0.02 0.02 0.02 0.03 0.02 0.03 0.03 0.04 0.05 0.05 0.05 0.04
0.02 0.02 0.02 0.02 0.02 0.03 0.03 0.04 0.03 0.03 0.02 0.01 0.01 0.02 0.03 0.03 0.03 0.04 0.03 0.03 0.02 0.02 0.02 0.02 0.02 0.02 0.02 0.01 0.01 0.01 0.02 0.02 0.03 0.04 0.05 0.06 0.05 0.04
0.02 0.02 0.02 0.02 0.03 0.04 0.04 0.03 0.02 0.03 0.02 0.02 0.03 0.03 0.03 0.02 0.02 0.03 0.02 0.02 0.02 0.01 0.01 0.02 0.02 0.03 0.03 0.02 0.01 0.01 0.01 0.01 0.02 0.02 0.03 0.05 0.05 0.04
0.02 0.02 0.02 0.02 0.02 0.03 0.03 0.03 0.03 0.02 0.02 0.02 0.02 0.02 0.02 0.02 0.02 0.02 0.02 0.02 0.01 0.01 0.01 0.01 0.02 0.02 0.02 0.02 0.02 0.01 0.01 0.02 0.03 0.03 0.04 0.05 0.05 0.05
0.01 0.02 0.02 0.02 0.02 0.02 0.03 0.03 0.03 0.02 0.02 0.02 0.01 0.02 0.02 0.03 0.03 0.02 0.02 0.01 0.01 0.01 0.01 0.01 0.01 0.02 0.02 0.02 0.03 0.02 0.02 0.02 0.03 0.04 0.04 0.04 0.05 0.05
0.01 0.02 0.02 0.02 0.02 0.02 0.02 0.03 0.02 0.02 0.02 0.01 0.01 0.01 0.01 0.01 0.02 0.02 0.01 0.01 0.01 0.01 0.01 0.01 0.02 0.02 0.02 0.03 0.04 0.03 0.02 0.02 0.02 0.03 0.04 0.04 0.04 0.04
MSLP
1016.81 1016.81 1016.79 1016.73 1016.59 1016.35 1015.99 1015.51 1014.92 1014.24 1013.49 1012.72 1011.94 1011.18 1010.45 1009.78 1009.14 1008.56 1008.02 1007.54 1007.11 1006.74 1006.44 1006.19 1006.00 1005.85 1005.73 1005.62 1005.50 1005.37 1005.23 1005.09 1004.96 1004.87 1004.82 1004.85 1004.95 1005.13
1016.59 1016.56 1016.50 1016.38 1016.19 1015.90 1015.50 1015.00 1014.40 1013.72 1012.99 1012.23 1011.47 1010.73 1010.01 1009.32 1008.67 1008.05 1007.47 1006.94 1006.46 1006.05 1005.70 1005.42 1005.22 1005.07 1004.96 1004.87 1004.80 1004.71 1004.61 1004.51 1004.41 1004.33 1004.29 1004.30 1004.38 1004.53
1016.34 1016.26 1016.14 1015.97 1015.72 1015.39 1014.95 1014.43 1013.83 1013.16 1012.46 1011.74 1011.01 1010.30 1009.60 1008.93 1008.27 1007.63 1007.02 1006.43 1005.90 1005.42 1005.01 1004.68 1004.43 1004.25 1004.13 1004.05 1003.99 1003.94 1003.88 1003.83 1003.78 1003.75 1003.75 1003.79 1003.90 1004.07
1016.09 1015.95 1015.78 1015.54 1015.24 1014.86 1014.40 1013.86 1013.26 1012.61 1011.94 1011.26 1010.58 1009.91 1009.25 1008.59 1007.94 1007.29 1006.65 1006.02 1005.43 1004.88 1004.41 1004.00 1003.69 1003.45 1003.29 1003.18 1003.12 1003.08 1003.06 1003.06 1003.07 1003.11 1003.18 1003.30 1003.48 1003.71
1015.86 1015.66 1015.42 1015.13 1014.77 1014.34 1013.85 1013.30 1012.71 1012.08 1011.44 1010.81 1010.17 1009.54 1008.92 1008.29 1007.66 1007.01 1006.35 1005.69 1005.05 1004.44 1003.89 1003.41 1003.01 1002.70 1002.47 1002.31 1002.23 1002.19 1002.19 1002.23 1002.31 1002.43 1002.60 1002.82 1003.09 1003.42
1015.62 1015.36 1015.06 1014.71 1014.30 1013.83 1013.31 1012.75 1012.16 1011.56 1010.95 1010.35 1009.76 1009.17 1008.59 1008.00 1007.38 1006.75 1006.09 1005.42 1004.74 1004.09 1003.47 1002.91 1002.43 1002.03 1001.72 1001.51 1001.37 1001.31 1001.33 1001.40 1001.54 1001.74 1002.01 1002.33 1002.71 1003.14
1015.35 1015.03 1014.67 1014.26 1013.80 1013.30 1012.76 1012.19 1011.60 1011.01 1010.43 1009.86 1009.30 1008.76 1008.22 1007.66 1007.08 1006.47 1005.83 1005.16 1004.47 1003.79 1003.12 1002.50 1001.95 1001.47 1001.09 1000.80 1000.61 1000.52 1000.53 1000.63 1000.81 1001.08 1001.43 1001.85 1002.32 1002.84
1015.01 1014.64 1014.22 1013.76 1013.26 1012.72 1012.16 1011.58 1010.99 1010.42 1009.85 1009.31 1008.79 1008.28 1007.78 1007.26 1006.72 1006.15 1005.54 1004.90 1004.22 1003.53 1002.84 1002.18 1001.57 1001.03 1000.58 1000.24 1000.00 999.87 999.86 999.96 1000.17 1000.49 1000.89 1001.38 1001.92 1002.50
1014.59 1014.17 1013.70 1013.20 1012.66 1012.10 1011.51 1010.93 1010.34 1009.77 1009.23 1008.71 1008.21 1007.73 1007.27 1006.79 1006.30 1005.78 1005.21 1004.60 1003.96 1003.28 1002.60 1001.93 1001.29 1000.71 1000.22 999.82 999.54 999.39 999.36 999.46 999.67 1000.01 1000.44 1000.96 1001.54 1002.14
1014.10 1013.64 1013.13 1012.59 1012.02 1011.44 1010.84 1010.25 1009.67 1009.11 1008.57 1008.07 1007.60 1007.15 1006.71 1006.28 1005.83 1005.36 1004.84 1004.29 1003.68 1003.04 1002.38 1001.72 1001.09 1000.50 999.99 999.57 999.26 999.08 999.04 999.13 999.34 999.68 1000.11 1000.63 1001.19 1001.79
1013.58 1013.08 1012.54 1011.98 1011.39 1010.80 1010.20 1009.61 1009.03 1008.47 1007.95 1007.46 1007.00 1006.57 1006.16 1005.76 1005.35 1004.92 1004.45 1003.95 1003.39 1002.80 1002.18 1001.55 1000.93 1000.36 999.85 999.43 999.13 998.95 998.90 998.98 999.18 999.50 999.91 1000.40 1000.92 1001.47
1013.07 1012.55 1012.00 1011.43 1010.84 1010.24 1009.65 1009.06 1008.49 1007.94 1007.42 1006.93 1006.48 1006.06 1005.67 1005.28 1004.90 1004.50 1004.07 1003.61 1003.10 1002.55 1001.97 1001.38 1000.81 1000.26 999.78 999.38 999.10 998.93 998.89 998.97 999.16 999.46 999.84 1000.27 1000.74 1001.22
1012.62 1012.10 1011.56 1010.99 1010.41 1009.83 1009.25 1008.67 1008.11 1007.56 1007.05 1006.56 1006.10 1005.68 1005.28 1004.90 1004.52 1004.14 1003.73 1003.29 1002.82 1002.30 1001.77 1001.22 1000.68 1000.18 999.74 999.38 999.13 998.99 998.96 999.05 999.24 999.52 999.86 1000.24 1000.64 1001.03
1012.26 1011.76 1011.24 1010.71 1010.16 1009.60 1009.04 1008.49 1007.94 1007.39 1006.87 1006.37 1005.90 1005.46 1005.05 1004.65 1004.26 1003.86 1003.46 1003.02 1002.56 1002.08 1001.57 1001.06 1000.56 1000.11 999.71 999.40 999.19 999.08 999.08 999.18 999.37 999.62 999.92 1000.24 1000.57 1000.89
1011.99 1011.54 1011.07 1010.58 1010.09 1009.58 1009.05 1008.52 1007.98 1007.45 1006.92 1006.40 1005.91 1005.43 1004.98 1004.55 1004.13 1003.70 1003.28 1002.83 1002.37 1001.89 1001.40 1000.92 1000.46 1000.05 999.70 999.42 999.25 999.18 999.20 999.31 999.48 999.71 999.97 1000.24 1000.50 1000.75
1011.80 1011.41 1011.02 1010.61 1010.18 1009.73 1009.25 1008.75 1008.24 1007.71 1007.17 1006.63 1006.11 1005.59 1005.10 1004.61 1004.14 1003.68 1003.22 1002.75 1002.27 1001.79 1001.31 1000.85 1000.41 1000.03 999.71 999.48 999.33 999.27 999.30 999.40 999.56 999.76 999.97 1000.18 1000.37 1000.55
1011.66 1011.36 1011.06 1010.74 1010.40 1010.02 1009.61 1009.15 1008.67 1008.15 1007.60 1007.05 1006.49 1005.93 1005.38 1004.85 1004.33 1003.81 1003.31 1002.81 1002.31 1001.81 1001.34 1000.88 1000.47 1000.10 999.81 999.59 999.45 999.39 999.40 999.47 999.59 999.73 999.88 1000.02 1000.15 1000.25
1011.57 1011.38 1011.18 1010.96 1010.71 1010.42 1010.07 1009.67 1009.21 1008.71 1008.17 1007.60 1007.01 1006.42 1005.82 1005.24 1004.67 1004.11 1003.57 1003.03 1002.51 1002.01 1001.53 1001.08 1000.68 1000.32 1000.03 999.80 999.64 999.55 999.52 999.53 999.58 999.64 999.70 999.76 999.81 999.85
1011.54 1011.45 1011.36 1011.24 1011.08 1010.86 1010.58 1010.24 1009.82 1009.34 1008.81 1008.24 1007.64 1007.02 1006.39 1005.77 1005.16 1004.57 1004.00 1003.44 1002.90 1002.40 1001.92 1001.47 1001.07 1000.71 1000.41 1000.16 999.96 999.81 999.70 999.63 999.57 999.52 999.48 999.44 999.39 999.35
1011.58 1011.59 1011.58 1011.55 1011.47 1011.32 1011.11 1010.81 1010.43 1009.99 1009.48 1008.91 1008.31 1007.68 1007.04 1006.40 1005.78 1005.16 1004.57 1004.00 1003.47 1002.96 1002.48 1002.04 1001.64 1001.28 1000.95 1000.67 1000.42 1000.19 999.99 999.81 999.63 999.45 999.28 999.12 998.97 998.84
1011.70 1011.79 1011.85 1011.88 1011.86 1011.77 1011.60 1011.34 1011.01 1010.59 1010.11 1009.56 1008.98 1008.36 1007.72 1007.09 1006.46 1005.84 1005.25 1004.69 1004.16 1003.66 1003.19 1002.76 1002.37 1002.00 1001.65 1001.33 1001.02 1000.72 1000.41 1000.11 999.81 999.50 999.19 998.90 998.63 998.41
1011.92 1012.05 1012.15 1012.22 1012.23 1012.16 1012.02 1011.80 1011.49 1011.11 1010.65 1010.14 1009.58 1008.99 1008.38 1007.76 1007.14 1006.54 1005.96 1005.42 1004.90 1004.42 1003.98 1003.57 1003.18 1002.81 1002.45 1002.10 1001.74 1001.37 1000.98 1000.58 1000.15 999.72 999.29 998.87 998.49 998.17
1012.19 1012.34 1012.46 1012.53 1012.54 1012.49 1012.35 1012.14 1011.86 1011.50 1011.08 1010.60 1010.08 1009.52 1008.94 1008.35 1007.76 1007.19 1006.64 1006.11 1005.62 1005.17 1004.75 1004.37 1004.00 1003.64 1003.29 1002.93 1002.55 1002.13 1001.69 1001.21 1000.70 1000.17 999.64 999.12 998.64 998.21
Thickness
5631 5629 5626 5624 5621 5619 5616 5613 5609 5607 5610 5614 5616 5619 5620 5620 5620 5620 5619 5619 5618 5618 5617 5617 5617 5617 5617 5616 5616 5616 5616 5617 5618 5620 5622 5624 5627 5629
5628 5625 5622 5620 5618 5615 5613 5610 5607 5604 5604 5608 5610 5612 5614 5615 5615 5615 5614 5613 5613 5613 5612 5612 5612 5612 5611 5611 5610 5610 5610 5611 5612 5614 5617 5619 5622 5623
5624 5622 5619 5617 5614 5612 5610 5607 5604 5602 5600 5603 5605 5607 5608 5608 5609 5609 5608 5608 5608 5608 5608 5607 5607 5607 5606 5606 5605 5604 5604 5605 5606 5608 5611 5614 5616 5617
5620 5617 5615 5613 5610 5608 5605 5603 5601 5599 5597 5596 5599 5600 5602 5602 5602 5602 5603 5603 5603 5603 5603 5602 5602 5602 5602 5601 5600 5599 5599 5600 5601 5602 5605 5607 5609 5610
5616 5613 5611 5608 5606 5603 5601 5599 5597 5597 5593 5592 5593 5594 5594 5596 5595 5595 5596 5597 5598 5598 5598 5598 5598 5597 5597 5597 5596 5595 5595 5595 5596 5597 5598 5600 5602 5604
5612 5610 5607 5605 5602 5600 5597 5595 5593 5591 5589 5587 5586 5587 5587 5588 5587 5587 5588 5589 5591 5593 5593 5593 5592 5592 5592 5593 5592 5591 5590 5590 5591 5591 5593 5594 5596 5597
5609 5606 5605 5603 5600 5597 5595 5592 5589 5586 5583 5581 5581 5580 5581 5580 5580 5581 5581 5582 5584 5586 5586 5587 5586 5587 5587 5588 5587 5587 5586 5586 5586 5586 5587 5588 5590 5591
5605 5603 5601 5598 5596 5594 5592 5590 5587 5583 5580 5577 5576 5575 5576 5576 5576 5576 5574 5574 5576 5578 5578 5579 5580 5580 5582 5582 5583 5583 5582 5582 5581 5582 5582 5583 5584 5585
5601 5598 5597 5595 5592 5589 5587 5585 5583 5581 5579 5576 5573 5573 5572 5573 5571 5570 5569 5569 5570 5572 5571 5572 5574 5574 5577 5578 5579 5579 5578 5578 5577 5577 5577 5578 5578 5579
5598 5595 5592 5590 5588 5585 5582 5579 5578 5577 5576 5574 5572 5572 5571 5570 5567 5566 5565 5565 5566 5566 5566 5565 5568 5570 5573 5574 5575 5575 5574 5574 5573 5573 5573 5573 5573 5573
5595 5593 5589 5586 5584 5580 5576 5573 5572 5572 5572 5571 5570 5569 5568 5566 5563 5561 5560 5559 5560 5562 5562 5560 5563 5564 5566 5568 5570 5570 5570 5570 5570 5569 5569 5568 5567 5567
5590 5588 5586 5582 5580 5576 5571 5568 5566 5566 5565 5565 5564 5563 5562 5561 5560 5558 5557 5555 5555 5556 5558 5556 5558 5558 5559 5563 5564 5565 5565 5565 5566 5565 5565 5563 5562 5560
5585 5583 5581 5578 5575 5572 5568 5564 5562 5561 5558 5557 5556 5556 5556 5555 5555 5555 5554 5553 5552 5553 5556 5553 5553 5553 5553 5556 5558 5559 5559 5560 5560 5561 5560 5559 5557 5556
5580 5578 5576 5573 5570 5567 5564 5562 5559 5556 5554 5552 5551 5550 5550 5550 5551 5552 5552 5552 5552 5553 5554 5551 5550 5550 5550 5550 5552 5554 5554 5555 5555 5555 5555 5554 5553 5552
5576 5574 5571 5567 5564 5562 5561 5558 5555 5552 5549 5547 5546 5545 5545 5546 5546 5547 5548 5548 5549 5549 5550 5549 5548 5547 5546 5546 5546 5547 5547 5549 5550 5549 5549 5548 5548 5547
5570 5568 5565 5562 5559 5557 5555 5554 5551 5548 5545 5543 5542 5542 5542 5542 5541 5541 5541 5541 5541 5543 5545 5545 5544 5542 5542 5542 5541 5541 5542 5542 5544 5544 5543 5543 5543 5543
5566 5562 5560 5558 5555 5553 5551 5549 5546 5544 5541 5540 5538 5537 5537 5537 5536 5536 5536 5535 5534 5535 5537 5538 5539 5538 5538 5537 5536 5537 5536 5537 5538 5538 5537 5537 5538 5538
5562 5557 5555 5552 5550 5548 5546 5544 5542 5539 5537 5536 5534 5533 5532 5532 5531 5532 5531 5530 5530 5530 5531 5531 5531 5532 5531 5532 5533 5532 5531 5531 5532 5532 5531 5531 5532 5533
5557 5554 5551 5548 5546 5544 5541 5539 5537 5535 5533 5531 5529 5527 5527 5526 5526 5526 5526 5525 5525 5525 5525 5526 5525 5525 5524 5525 5527 5527 5526 5526 5525 5525 5525 5525 5526 5527
5554 5550 5547 5545 5543 5540 5538 5536 5534 5531 5529 5526 5524 5522 5522 5521 5520 5520 5520 5519 5519 5520 5520 5520 5520 5520 5519 5519 5519 5520 5521 5520 5519 5519 5518 5518 5518 5520
5553 5549 5546 5543 5540 5537 5535 5532 5529 5526 5524 5521 5519 5518 5517 5516 5515 5515 5514 5514 5513 5514 5514 5514 5516 5517 5516 5514 5513 5513 5514 5515 5515 5514 5513 5512 5512 5513
5551 5547 5543 5540 5537 5533 5530 5527 5524 5521 5518 5515 5513 5512 5511 5510 5509 5509 5509 5508 5508 5508 5508 5509 5511 5511 5510 5508 5507 5506 5506 5508 5510 5510 5510 5510 5509 5509
5548 5544 5540 5536 5533 5529 5526 5522 5519 5515 5512 5509 5507 5506 5505 5505 5504 5504 5504 5504 5503 5503 5502 5502 5503 5503 5503 5502 5501 5500 5501 5501 5502 5503 5503 5506 5507 5508